Flag for Norway Weather past 2 weeks in Horten, Norway

Now
63 °F

Sunny.


Feels Like: 63 °F
Forecast: 49 / 64 °F
Wind: 6 mph from Southeast

Location: Oseberg

Current Time: Aug 31, 2014 at 12:52:23 PM

Latest Report: Aug 31, 2014 at 11:50 AM


Visibility: 10 mi

Pressure: 29.98 "Hg

Humidity: 68%

Dew point: 52 °F

Location of HortenLocation

Historic Weather in Horten — Graph

°F

Horten temperature yesterday

Maximum temperature yesterday: 59 °F (at 9:20 AM)
Minimum temperature yesterday: 57 °F (at 12:50 AM)
Average temperature yesterday: 58 °F

Past Weeks' High & Low Weather Summary

 TemperatureHumidityPressure
High63 °F (Aug 31, 10:50 AM)100% (Aug 23, 10:50 AM)30.04 "Hg (Aug 23, 10:50 AM)
Low37 °F (Aug 23, 4:50 PM)63% (Aug 21, 4:20 PM)29.30 "Hg (Aug 18, 3:50 AM)
Average55 °F79%29.69 "Hg
* Reported Aug 16 11:20 AM — Aug 31 11:50 AM, Horten, Weather by CustomWeather, © 2014

Note: Actual official high and low records may vary slightly from our data, if they occured in-between our weather recording intervals... More about our weather records

Advertising

Horten weather history for previous 24 hours

 ConditionsComfort  
Time TempWeatherWind HumidityBarometerVisibility
11:50 AM
Aug 31
63 °FSunny.6 mph68%29.98 "Hg10 mi
10:50 AM63 °FSunny.7 mph68%29.98 "Hg10 mi
9:50 AM61 °FSunny.10 mph68%29.95 "Hg10 mi
8:50 AM61 °FSunny.12 mph72%29.92 "Hg10 mi
8:20 AM61 °FPassing clouds.15 mph77%29.92 "HgN/A
7:50 AM61 °FPassing clouds.15 mph72%29.92 "HgN/A
6:50 AM59 °FPassing clouds.16 mph77%29.89 "HgN/A
6:20 AM59 °FPassing clouds.21 mph77%29.89 "HgN/A
5:50 AM59 °FPassing clouds.22 mph77%29.86 "HgN/A
4:50 AM59 °FPassing clouds.25 mph77%29.86 "HgN/A
3:50 AM59 °FPassing clouds.24 mph77%29.86 "HgN/A
3:20 AM61 °FPassing clouds.26 mph68%29.86 "HgN/A
1:50 AM59 °FPassing clouds.22 mph77%29.86 "HgN/A
12:50 AM59 °FPassing clouds.23 mph82%29.86 "HgN/A
11:50 PM
Aug 30
59 °FPassing clouds.28 mph77%29.83 "HgN/A
10:50 PM59 °FPassing clouds.23 mph82%29.83 "HgN/A
9:50 PM59 °FSprinkles. Passing clouds.25 mph77%29.80 "HgN/A
8:50 PM59 °FPartly sunny.31 mph77%29.77 "HgN/A
7:50 PM59 °FPartly sunny.30 mph82%29.77 "HgN/A
6:50 PM57 °FScattered showers. Partly sunny.20 mph88%29.77 "HgN/A
5:50 PM57 °FRain showers. Partly sunny.21 mph88%29.77 "Hg6 mi
4:50 PM57 °FRain showers. Partly sunny.16 mph88%29.77 "HgN/A
4:20 PM57 °FSprinkles. Scattered clouds.16 mph88%29.77 "HgN/A
3:50 PM57 °FSprinkles. Scattered clouds.13 mph88%29.77 "HgN/A
3:20 PM57 °FSprinkles. Partly sunny.15 mph88%29.77 "HgN/A
2:50 PM59 °FSprinkles. Partly sunny.24 mph82%29.74 "Hg6 mi
1:50 PM59 °FPartly sunny.17 mph82%29.74 "HgN/A
1:20 PM59 °FPartly sunny.18 mph82%29.74 "HgN/A
12:50 PM59 °FBroken clouds.16 mph77%29.74 "HgN/A
12:20 PM59 °FScattered clouds.22 mph82%29.74 "HgN/A
Weather by CustomWeather, © 2014

See weather overviewHow to use our weather pages